,,PA_Meas_PMT16A,,PR_Meas_QMR101_102,,RH_Meas_QMH101,,SR_Meas_QMS101,,TA_Meas_QMH101,,GenWind,,GenWind,
time,status,PA,status,PR,status,RH,status,SR,status,TA,status,DirAvg,status,SpdAvg,
2009-09-17, 00:00:04,VALID,918.2,VALID,0,VALID,95.0183,VALID,0,VALID,19.6233,VALID,76,VALID,0.50625,
2009-09-17, 00:01:04,VALID,918.143,VALID,0,VALID,94.881,VALID,0,VALID,19.6248,VALID,76,VALID,0.827344,
2009-09-17, 00:02:04,VALID,918.186,VALID,0,VALID,94.8048,VALID,0,VALID,19.5843,VALID,76,VALID,0.494922,
2009-09-17, 00:03:04,VALID,918.154,VALID,0,VALID,94.8887,VALID,0,VALID,19.5648,VALID,76,VALID,0.599219,
2009-09-17, 00:04:04,VALID,918.168,VALID,0,VALID,94.9496,VALID,0,VALID,19.5648,VALID,83,VALID,0.883594,
2009-09-17, 00:05:04,VALID,918.167,VALID,0,VALID,94.9573,VALID,0,VALID,19.5258,VALID,165,VALID,0.912109,
2009-09-17, 00:06:04,VALID,918.118,VALID,0,VALID,94.7743,VALID,0,VALID,19.5273,VALID,165,VALID,0.747656,
2009-09-17, 00:07:04,VALID,918.124,VALID,0,VALID,94.4541,VALID,0,VALID,19.5048,VALID,165,VALID,0.633203,
2009-09-17, 00:08:04,VALID,918.135,VALID,0,VALID,94.2635,VALID,0.107441,VALID,19.5843,VALID,165,VALID,0.791016,
2009-09-17, 00:09:04,VALID,918.08,VALID,0,VALID,93.951,VALID,0,VALID,19.5633,VALID,165,VALID,0.792969,
2009-09-17, 00:10:04,VALID,918.056,VALID,0,VALID,94.1339,VALID,0.107441,VALID,19.5633,VALID,165,VALID,0.364062,
2009-09-17, 00:11:04,VALID,918.062,VALID,0,VALID,94.3779,VALID,0,VALID,19.5843,VALID,165,VALID,0.615625,
2009-09-17, 00:12:04,VALID,918.015,VALID,0,VALID,94.3779,VALID,0,VALID,19.6038,VALID,165,VALID,0.550391,
2009-09-17, 00:13:04,VALID,917.997,VALID,0,VALID,94.1187,VALID,0.107441,VALID,19.5843,VALID,165,VALID,0.876953,
2009-09-17, 00:14:04,VALID,917.987,VALID,0,VALID,94.1797,VALID,0,VALID,19.5438,VALID,165,VALID,0.691797,
2009-09-17, 00:15:04,VALID,917.996,VALID,0,VALID,94.2178,VALID,0,VALID,19.5453,VALID,165,VALID,0.939844,
2009-09-17, 00:16:04,VALID,917.956,VALID,0,VALID,94.3093,VALID,0,VALID,19.4853,VALID,165,VALID,0.836328,
2009-09-17, 00:17:04,VALID,917.979,VALID,0,VALID,94.2635,VALID,0,VALID,19.4868,VALID,165,VALID,0.994922,
2009-09-17, 00:18:04,VALID,917.91,VALID,0,VALID,94.2254,VALID,0.107441,VALID,19.4658,VALID,164,VALID,0.55625,
2009-09-17, 00:19:04,VALID,917.948,VALID,0,VALID,94.2407,VALID,0,VALID,19.5063,VALID,164,VALID,0.625,
2009-09-17, 00:20:04,VALID,917.924,VALID,0,VALID,94.294,VALID,0.107441,VALID,19.5048,VALID,164,VALID,0.482812,
2009-09-17, 00:21:04,VALID,917.933,VALID,0,VALID,94.3017,VALID,0,VALID,19.5258,VALID,164,VALID,0.676172,
2009-09-17, 00:22:04,VALID,917.883,VALID,0,VALID,94.416,VALID,0,VALID,19.5063,VALID,164,VALID,0.662109,
2009-09-17, 00:23:04,VALID,917.912,VALID,0,VALID,94.4084,VALID,0,VALID,19.5063,VALID,164,VALID,0.808203,
2009-09-17, 00:24:04,VALID,917.908,VALID,0,VALID,94.5075,VALID,0,VALID,19.4658,VALID,164,VALID,0.537109,
2009-09-17, 00:25:04,VALID,917.888,VALID,0,VALID,94.4313,VALID,0,VALID,19.4463,VALID,164,VALID,0.705859,
2009-09-17, 00:26:04,VALID,917.875,VALID,0,VALID,94.4236,VALID,0,VALID,19.4478,VALID,164,VALID,0.947266,
2009-09-17, 00:27:04,VALID,917.844,VALID,0,VALID,94.5532,VALID,0,VALID,19.4268,VALID,164,VALID,1.05859,
2009-09-17, 00:28:04,VALID,917.813,VALID,0,VALID,94.66,VALID,0,VALID,19.4268,VALID,86,VALID,1.09063,
2009-09-17, 00:29:04,VALID,917.846,VALID,0,VALID,94.8124,VALID,0,VALID,19.4283,VALID,87,VALID,1.35195,
2009-09-17, 00:30:04,VALID,917.805,VALID,0,VALID,95.0259,VALID,0,VALID,19.4088,VALID,113,VALID,1.22305,
2009-09-17, 00:31:04,VALID,917.823,VALID,0,VALID,95.2698,VALID,0,VALID,19.3893,VALID,116,VALID,1.2375,
2009-09-17, 00:32:04,VALID,917.82,VALID,0,VALID,95.5671,VALID,0,VALID,19.3684,VALID,122,VALID,0.941797,
2009-09-17, 00:33:04,VALID,917.816,VALID,0,VALID,95.7806,VALID,0,VALID,19.3489,VALID,136,VALID,1.51172,
2009-09-17, 00:34:04,VALID,917.806,VALID,0,VALID,95.9636,VALID,0,VALID,19.3503,VALID,136,VALID,1.1668,
2009-09-17, 00:35:04,VALID,917.821,VALID,0,VALID,96.1008,VALID,0,VALID,19.3308,VALID,128,VALID,1.03359,
2009-09-17, 00:36:04,VALID,917.803,VALID,0,VALID,96.2609,VALID,0,VALID,19.3099,VALID,138,VALID,1.57813,
2009-09-17, 00:37:04,VALID,917.77,VALID,0,VALID,96.3676,VALID,0,VALID,19.3113,VALID,139,VALID,1.83164,
2009-09-17, 00:38:04,VALID,917.76,VALID,0,VALID,96.4591,VALID,0,VALID,19.3113,VALID,140,VALID,0.969531,
2009-09-17, 00:39:04,VALID,917.744,VALID,0,VALID,96.5506,VALID,0,VALID,19.3308,VALID,137,VALID,1.61406,
2009-09-17, 00:40:04,VALID,917.747,VALID,0,VALID,96.5887,VALID,0,VALID,19.3308,VALID,130,VALID,1.52031,
2009-09-17, 00:41:04,VALID,917.712,VALID,0,VALID,96.6192,VALID,0,VALID,19.3099,VALID,135,VALID,1.66562,
2009-09-17, 00:42:04,VALID,917.703,VALID,0,VALID,96.6344,VALID,0,VALID,19.3308,VALID,142,VALID,1.39531,
2009-09-17, 00:43:04,VALID,917.694,VALID,0,VALID,96.6192,VALID,0,VALID,19.3308,VALID,142,VALID,1.13516,
2009-09-17, 00:44:04,VALID,917.68,VALID,0,VALID,96.6192,VALID,0,VALID,19.3308,VALID,147,VALID,1.07969,
2009-09-17, 00:45:04,VALID,917.65,VALID,0,VALID,96.5887,VALID,0,VALID,19.3308,VALID,147,VALID,1.24766,
2009-09-17, 00:46:04,VALID,917.644,VALID,0,VALID,96.5658,VALID,0,VALID,19.3503,VALID,147,VALID,0.951953,
2009-09-17, 00:47:04,VALID,917.643,VALID,0,VALID,96.4819,VALID,0,VALID,19.3503,VALID,147,VALID,1.46563,
2009-09-17, 00:48:04,VALID,917.61,VALID,0,VALID,96.4438,VALID,0,VALID,19.3698,VALID,147,VALID,1.07617,
2009-09-17, 00:49:04,VALID,917.6,VALID,0,VALID,96.3219,VALID,0,VALID,19.3893,VALID,147,VALID,0.814062,
2009-09-17, 00:50:04,VALID,917.645,VALID,0,VALID,96.2533,VALID,0,VALID,19.4088,VALID,147,VALID,1.01484,
2009-09-17, 00:51:04,VALID,917.638,VALID,0,VALID,96.1694,VALID,0,VALID,19.3893,VALID,114,VALID,1.07109,
2009-09-17, 00:52:04,VALID,917.639,VALID,0,VALID,96.0855,VALID,0,VALID,19.4088,VALID,113,VALID,0.823047,
2009-09-17, 00:53:04,VALID,917.642,VALID,0,VALID,96.0169,VALID,0,VALID,19.4088,VALID,113,VALID,0.895312,
2009-09-17, 00:54:04,VALID,917.646,VALID,0,VALID,95.9636,VALID,0,VALID,19.4088,VALID,113,VALID,0.878906,
2009-09-17, 00:55:04,VALID,917.609,VALID,0,VALID,95.9026,VALID,0,VALID,19.3893,VALID,113,VALID,0.665625,
2009-09-17, 00:56:04,VALID,917.595,VALID,0,VALID,95.8111,VALID,0,VALID,19.3698,VALID,113,VALID,0.90625,
2009-09-17, 00:57:04,VALID,917.578,VALID,0,VALID,95.7654,VALID,0,VALID,19.3503,VALID,113,VALID,0.783594,
2009-09-17, 00:58:04,VALID,917.576,VALID,0,VALID,95.7349,VALID,0,VALID,19.3503,VALID,113,VALID,0.658594,
2009-09-17, 00:59:04,VALID,917.506,VALID,0,VALID,95.7196,VALID,0,VALID,19.3503,VALID,113,VALID,0.515234,
2009-09-17, 01:00:04,VALID,917.506,VALID,0,VALID,95.7196,VALID,0,VALID,19.3503,VALID,113,VALID,0.55,
2009-09-17, 01:01:04,VALID,917.456,VALID,0,VALID,95.6434,VALID,0.107441,VALID,19.3503,VALID,113,VALID,0.570703,
2009-09-17, 01:02:04,VALID,917.457,VALID,0,VALID,95.5062,VALID,0,VALID,19.3294,VALID,113,VALID,0.671875,
2009-09-17, 01:03:04,VALID,917.472,VALID,0,VALID,95.4147,VALID,0.107441,VALID,19.3503,VALID,113,VALID,0.798828,
2009-09-17, 01:04:04,VALID,917.466,VALID,0,VALID,95.3003,VALID,0,VALID,19.3489,VALID,113,VALID,0.733984,
2009-09-17, 01:05:04,VALID,917.41,VALID,0,VALID,95.1631,VALID,0,VALID,19.3503,VALID,113,VALID,0.911328,
2009-09-17, 01:06:04,VALID,917.418,VALID,0,VALID,95.1631,VALID,0,VALID,19.3503,VALID,113,VALID,0.61875,
2009-09-17, 01:07:04,VALID,917.405,VALID,0,VALID,95.0792,VALID,0,VALID,19.3308,VALID,113,VALID,0.784766,
2009-09-17, 01:08:04,VALID,917.405,VALID,0,VALID,95.1097,VALID,0,VALID,19.3113,VALID,113,VALID,0.788281,
2009-09-17, 01:09:04,VALID,917.406,VALID,0,VALID,95.125,VALID,0,VALID,19.2709,VALID,113,VALID,0.927344,
2009-09-17, 01:10:04,VALID,917.417,VALID,0,VALID,94.9878,VALID,0,VALID,19.2514,VALID,113,VALID,1.11836,
2009-09-17, 01:11:04,VALID,917.43,VALID,0,VALID,94.5761,VALID,0,VALID,19.2723,VALID,119,VALID,1.37852,
2009-09-17, 01:12:04,VALID,917.378,VALID,0,VALID,94.5761,VALID,0,VALID,19.2723,VALID,107,VALID,0.649609,
2009-09-17, 01:13:04,VALID,917.393,VALID,0,VALID,94.6371,VALID,0,VALID,19.2723,VALID,107,VALID,0.450781,
2009-09-17, 01:14:04,VALID,917.396,VALID,0,VALID,94.7057,VALID,0,VALID,19.2319,VALID,107,VALID,0.569531,
2009-09-17, 01:15:04,VALID,917.363,VALID,0,VALID,94.6447,VALID,0,VALID,19.2334,VALID,107,VALID,0.328125,
2009-09-17, 01:16:04,VALID,917.32,VALID,0,VALID,94.4617,VALID,0,VALID,19.1929,VALID,107,VALID,0.723047,
2009-09-17, 01:17:04,VALID,917.3,VALID,0,VALID,94.6523,VALID,0,VALID,19.1944,VALID,107,VALID,0.522656,
2009-09-17, 01:18:04,VALID,917.327,VALID,0,VALID,94.5913,VALID,0,VALID,19.1749,VALID,107,VALID,0.959375,
2009-09-17, 01:19:04,VALID,917.286,VALID,0,VALID,94.7209,VALID,0,VALID,19.1539,VALID,107,VALID,0.484375,
2009-09-17, 01:20:04,VALID,917.242,VALID,0,VALID,94.6676,VALID,0,VALID,19.1344,VALID,107,VALID,1.02305,
2009-09-17, 01:21:04,VALID,917.246,VALID,0,VALID,94.8277,VALID,0,VALID,19.1344,VALID,107,VALID,0.710156,
2009-09-17, 01:22:04,VALID,917.215,VALID,0,VALID,94.8353,VALID,0.107441,VALID,19.1554,VALID,107,VALID,0.883984,
2009-09-17, 01:23:04,VALID,917.185,VALID,0,VALID,94.7209,VALID,0,VALID,19.1359,VALID,107,VALID,1.06445,
2009-09-17, 01:24:04,VALID,917.169,VALID,0,VALID,94.7057,VALID,0.107441,VALID,19.1359,VALID,107,VALID,1.01758,
2009-09-17, 01:25:04,VALID,917.156,VALID,0,VALID,94.6523,VALID,0.107441,VALID,19.0954,VALID,107,VALID,0.901563,
2009-09-17, 01:26:04,VALID,917.117,VALID,0,VALID,94.5227,VALID,0.107441,VALID,19.1164,VALID,107,VALID,1.00625,
2009-09-17, 01:27:04,VALID,917.152,VALID,0,VALID,94.4313,VALID,0,VALID,19.0969,VALID,107,VALID,1.17539,
2009-09-17, 01:28:04,VALID,917.138,VALID,0,VALID,94.5532,VALID,0,VALID,19.1164,VALID,107,VALID,0.941406,
2009-09-17, 01:29:04,VALID,917.145,VALID,0,VALID,94.5761,VALID,0,VALID,19.0969,VALID,107,VALID,0.871875,
2009-09-17, 01:30:04,VALID,917.158,VALID,0,VALID,94.6295,VALID,0.107441,VALID,19.0969,VALID,107,VALID,0.951563,
2009-09-17, 01:31:04,VALID,917.137,VALID,0,VALID,94.6142,VALID,0,VALID,19.1164,VALID,108,VALID,0.962109,
2009-09-17, 01:32:04,VALID,917.117,VALID,0,VALID,94.6218,VALID,0,VALID,19.1149,VALID,108,VALID,0.992969,
2009-09-17, 01:33:04,VALID,917.121,VALID,0,VALID,94.5456,VALID,0.107441,VALID,19.1344,VALID,160,VALID,0.831641,
2009-09-17, 01:34:04,VALID,917.115,VALID,0,VALID,94.5075,VALID,0,VALID,19.1359,VALID,160,VALID,0.774219,
2009-09-17, 01:35:04,VALID,917.1,VALID,0,VALID,94.3169,VALID,0.107441,VALID,19.1554,VALID,164,VALID,1.20586,
2009-09-17, 01:36:04,VALID,917.119,VALID,0,VALID,94.2407,VALID,0,VALID,19.1944,VALID,167,VALID,0.994141,
2009-09-17, 01:37:04,VALID,917.122,VALID,0,VALID,93.89,VALID,0.107441,VALID,19.2139,VALID,167,VALID,1.34063,
2009-09-17, 01:38:04,VALID,917.099,VALID,0,VALID,93.5012,VALID,0,VALID,19.2319,VALID,167,VALID,1.15313,
2009-09-17, 01:39:04,VALID,917.108,VALID,0,VALID,93.2649,VALID,0.107441,VALID,19.3099,VALID,167,VALID,1.04062,
2009-09-17, 01:40:04,VALID,917.085,VALID,0,VALID,93.1734,VALID,0,VALID,19.3113,VALID,167,VALID,1.06758,
2009-09-17, 01:41:04,VALID,917.102,VALID,0,VALID,93.2191,VALID,0,VALID,19.3294,VALID,167,VALID,0.84375,
2009-09-17, 01:42:04,VALID,917.072,VALID,0,VALID,93.3945,VALID,0,VALID,19.3308,VALID,167,VALID,1.19609,
2009-09-17, 01:43:04,VALID,917.077,VALID,0,VALID,93.364,VALID,0,VALID,19.3099,VALID,167,VALID,1.19141,
2009-09-17, 01:44:04,VALID,917.06,VALID,0,VALID,93.425,VALID,0.107441,VALID,19.3308,VALID,167,VALID,1.19062,
2009-09-17, 01:45:04,VALID,917.064,VALID,0,VALID,93.4783,VALID,0,VALID,19.3308,VALID,167,VALID,1.06797,
2009-09-17, 01:46:04,VALID,917.053,VALID,0,VALID,93.6232,VALID,0.107441,VALID,19.2918,VALID,167,VALID,0.537109,
2009-09-17, 01:47:04,VALID,917.022,VALID,0,VALID,93.7833,VALID,0,VALID,19.2723,VALID,167,VALID,0.834375,
2009-09-17, 01:48:04,VALID,917.042,VALID,0,VALID,93.9738,VALID,0,VALID,19.2334,VALID,167,VALID,0.613672,
2009-09-17, 01:49:04,VALID,917.015,VALID,0,VALID,93.9205,VALID,0,VALID,19.2334,VALID,167,VALID,0.789844,
2009-09-17, 01:50:04,VALID,917.01,VALID,0,VALID,94.012,VALID,0,VALID,19.2334,VALID,167,VALID,0.739453,
2009-09-17, 01:51:04,VALID,917.017,VALID,0,VALID,94.2864,VALID,0.107441,VALID,19.2124,VALID,167,VALID,0.961719,
2009-09-17, 01:52:04,VALID,917.015,VALID,0,VALID,94.6295,VALID,0,VALID,19.2139,VALID,166,VALID,0.723437,
2009-09-17, 01:53:04,VALID,917.005,VALID,0,VALID,94.7667,VALID,0,VALID,19.1749,VALID,166,VALID,0.910937,
2009-09-17, 01:54:04,VALID,916.993,VALID,0,VALID,94.8353,VALID,0.107441,VALID,19.1554,VALID,166,VALID,0.858984,
2009-09-17, 01:55:04,VALID,916.991,VALID,0,VALID,94.8429,VALID,0,VALID,19.1359,VALID,166,VALID,1.00664,
2009-09-17, 01:56:04,VALID,917.024,VALID,0,VALID,94.7591,VALID,0,VALID,19.1149,VALID,166,VALID,0.696875,
2009-09-17, 01:57:04,VALID,916.981,VALID,0,VALID,94.7057,VALID,0.107441,VALID,19.1359,VALID,165,VALID,0.810156,
2009-09-17, 01:58:04,VALID,916.981,VALID,0,VALID,94.7514,VALID,0,VALID,19.1359,VALID,165,VALID,0.766016,
2009-09-17, 01:59:04,VALID,916.952,VALID,0,VALID,94.881,VALID,0,VALID,19.1164,VALID,163,VALID,1.13633,
2009-09-17, 02:00:04,VALID,916.947,VALID,0,VALID,94.8658,VALID,0.107441,VALID,19.1164,VALID,162,VALID,0.660156,
2009-09-17, 02:01:04,VALID,916.951,VALID,0,VALID,94.9496,VALID,0,VALID,19.1554,VALID,162,VALID,0.744922,
2009-09-17, 02:02:04,VALID,916.927,VALID,0,VALID,94.9268,VALID,0,VALID,19.1554,VALID,162,VALID,0.978906,
2009-09-17, 02:03:04,VALID,916.927,VALID,0,VALID,95.0183,VALID,0,VALID,19.1749,VALID,162,VALID,0.879297,
2009-09-17, 02:04:04,VALID,916.913,VALID,0,VALID,94.9954,VALID,0,VALID,19.1749,VALID,160,VALID,1.12031,
2009-09-17, 02:05:04,VALID,916.895,VALID,0,VALID,94.8963,VALID,0.107441,VALID,19.1749,VALID,147,VALID,0.991797,
2009-09-17, 02:06:04,VALID,916.876,VALID,0,VALID,94.9039,VALID,0.107441,VALID,19.1944,VALID,164,VALID,1.74531,
2009-09-17, 02:07:04,VALID,916.874,VALID,0,VALID,94.8353,VALID,0,VALID,19.2139,VALID,153,VALID,1.27422,
2009-09-17, 02:08:04,VALID,916.851,VALID,0,VALID,94.7896,VALID,0,VALID,19.2124,VALID,155,VALID,1.18828,
2009-09-17, 02:09:04,VALID,916.859,VALID,0,VALID,94.477,VALID,0,VALID,19.2334,VALID,150,VALID,1.15,
2009-09-17, 02:10:04,VALID,916.817,VALID,0,VALID,94.2864,VALID,0,VALID,19.2918,VALID,143,VALID,1.36484,
2009-09-17, 02:11:04,VALID,916.823,VALID,0,VALID,94.1797,VALID,0,VALID,19.3308,VALID,183,VALID,0.916406,
2009-09-17, 02:12:04,VALID,916.852,VALID,0,VALID,93.5469,VALID,0,VALID,19.3503,VALID,162,VALID,1.78125,
2009-09-17, 02:13:04,VALID,916.839,VALID,0,VALID,93.0362,VALID,0,VALID,19.4088,VALID,156,VALID,1.87031,
2009-09-17, 02:14:04,VALID,916.824,VALID,0,VALID,92.1976,VALID,0,VALID,19.4283,VALID,146,VALID,1.62227,
2009-09-17, 02:15:04,VALID,916.809,VALID,0,VALID,92.3272,VALID,0.107441,VALID,19.5063,VALID,121,VALID,1.30352,
2009-09-17, 02:16:04,VALID,916.802,VALID,0,VALID,92.533,VALID,0.107441,VALID,19.4868,VALID,132,VALID,1.35742,
2009-09-17, 02:17:04,VALID,916.789,VALID,0,VALID,92.6321,VALID,0,VALID,19.4673,VALID,129,VALID,1.6168,
2009-09-17, 02:18:04,VALID,916.742,VALID,0,VALID,92.4187,VALID,0.107441,VALID,19.4463,VALID,147,VALID,1.47695,
2009-09-17, 02:19:04,VALID,916.767,VALID,0,VALID,92.4492,VALID,0,VALID,19.4673,VALID,131,VALID,1.42773,
2009-09-17, 02:20:04,VALID,916.752,VALID,0,VALID,92.3119,VALID,0.107441,VALID,19.4463,VALID,117,VALID,1.37422,
2009-09-17, 02:21:04,VALID,916.746,VALID,0,VALID,92.3043,VALID,0,VALID,19.4463,VALID,136,VALID,1.49609,
2009-09-17, 02:22:04,VALID,916.745,VALID,0,VALID,92.4263,VALID,0,VALID,19.4283,VALID,137,VALID,1.83047,
2009-09-17, 02:23:04,VALID,916.723,VALID,0,VALID,92.4492,VALID,0,VALID,19.4298,VALID,138,VALID,1.67031,
2009-09-17, 02:24:04,VALID,916.688,VALID,0,VALID,92.7922,VALID,0,VALID,19.4298,VALID,129,VALID,1.47031,
2009-09-17, 02:25:04,VALID,916.665,VALID,0,VALID,92.9828,VALID,0,VALID,19.4298,VALID,121,VALID,1.26406,
2009-09-17, 02:26:04,VALID,916.662,VALID,0,VALID,92.7465,VALID,0,VALID,19.4088,VALID,121,VALID,1.13164,
2009-09-17, 02:27:04,VALID,916.632,VALID,0,VALID,92.6855,VALID,0,VALID,19.4493,VALID,121,VALID,0.786328,
2009-09-17, 02:28:04,VALID,916.597,VALID,0,VALID,90.8483,VALID,0,VALID,19.4493,VALID,160,VALID,1.95273,
2009-09-17, 02:29:04,VALID,916.606,VALID,0,VALID,90.3832,VALID,0,VALID,19.5468,VALID,133,VALID,1.43008,
2009-09-17, 02:30:04,VALID,916.553,VALID,0,VALID,90.3908,VALID,0,VALID,19.5663,VALID,140,VALID,1.72852,
2009-09-17, 02:31:04,VALID,916.543,VALID,0,VALID,89.9868,VALID,0,VALID,19.5858,VALID,151,VALID,1.51445,
2009-09-17, 02:32:04,VALID,916.504,VALID,0,VALID,89.4303,VALID,0,VALID,19.5843,VALID,153,VALID,1.97773,
2009-09-17, 02:33:04,VALID,916.492,VALID,0,VALID,89.8572,VALID,0,VALID,19.6248,VALID,138,VALID,1.5918,
2009-09-17, 02:34:04,VALID,916.502,VALID,0,VALID,89.9411,VALID,0,VALID,19.5843,VALID,139,VALID,1.46445,
2009-09-17, 02:35:04,VALID,916.455,VALID,0,VALID,89.8267,VALID,0,VALID,19.6053,VALID,149,VALID,1.92539,
2009-09-17, 02:36:04,VALID,916.462,VALID,0,VALID,89.72,VALID,0,VALID,19.5663,VALID,148,VALID,1.60586,
2009-09-17, 02:37:04,VALID,916.442,VALID,0,VALID,90.1164,VALID,0,VALID,19.5663,VALID,144,VALID,1.46719,
2009-09-17, 02:38:04,VALID,916.448,VALID,0,VALID,90.307,VALID,0,VALID,19.5273,VALID,134,VALID,1.52813,
2009-09-17, 02:39:04,VALID,916.407,VALID,0,VALID,90.711,VALID,0,VALID,19.4673,VALID,121,VALID,1.15234,
2009-09-17, 02:40:04,VALID,916.438,VALID,0,VALID,90.772,VALID,0,VALID,19.4673,VALID,121,VALID,1.37891,
2009-09-17, 02:41:04,VALID,916.391,VALID,0,VALID,91.2294,VALID,0,VALID,19.4688,VALID,121,VALID,0.696875,
2009-09-17, 02:42:04,VALID,916.42,VALID,0,VALID,91.7402,VALID,0,VALID,19.4493,VALID,121,VALID,0.315234,
2009-09-17, 02:43:04,VALID,916.399,VALID,0,VALID,91.885,VALID,0,VALID,19.4298,VALID,121,VALID,0.916016,
2009-09-17, 02:44:04,VALID,916.409,VALID,0,VALID,92.3653,VALID,0,VALID,19.3908,VALID,121,VALID,0.390234,
2009-09-17, 02:45:04,VALID,916.393,VALID,0,VALID,92.4797,VALID,0,VALID,19.3698,VALID,122,VALID,0.518359,
2009-09-17, 02:46:04,VALID,916.379,VALID,0,VALID,92.5635,VALID,0,VALID,19.3518,VALID,134,VALID,1.15391,
2009-09-17, 02:47:04,VALID,916.384,VALID,0,VALID,92.7693,VALID,0,VALID,19.3518,VALID,172,VALID,0.636719,
2009-09-17, 02:48:04,VALID,916.359,VALID,0,VALID,92.6474,VALID,0,VALID,19.3518,VALID,172,VALID,0.834375,
2009-09-17, 02:49:04,VALID,916.37,VALID,0,VALID,92.6397,VALID,0,VALID,19.3518,VALID,172,VALID,0.880078,
2009-09-17, 02:50:04,VALID,916.347,VALID,0,VALID,92.5025,VALID,0,VALID,19.3308,VALID,172,VALID,1.37383,
2009-09-17, 02:51:04,VALID,916.354,VALID,0,VALID,92.5711,VALID,0,VALID,19.3503,VALID,176,VALID,0.728125,
2009-09-17, 02:52:04,VALID,916.343,VALID,0,VALID,92.5635,VALID,0,VALID,19.3713,VALID,176,VALID,0.585156,
2009-09-17, 02:53:04,VALID,916.332,VALID,0,VALID,92.4873,VALID,0,VALID,19.3308,VALID,160,VALID,1.17734,
2009-09-17, 02:54:04,VALID,916.324,VALID,0,VALID,92.6855,VALID,0,VALID,19.3503,VALID,158,VALID,0.339844,
2009-09-17, 02:55:04,VALID,916.319,VALID,0,VALID,92.8151,VALID,0,VALID,19.3713,VALID,158,VALID,0.190234,
2009-09-17, 02:56:04,VALID,916.276,VALID,0,VALID,92.7236,VALID,0,VALID,19.3713,VALID,158,VALID,0.367969,
2009-09-17, 02:57:04,VALID,916.253,VALID,0,VALID,92.7617,VALID,0,VALID,19.3713,VALID,158,VALID,0.3125,
2009-09-17, 02:58:04,VALID,916.268,VALID,0,VALID,92.777,VALID,0,VALID,19.3518,VALID,158,VALID,0.534375,
2009-09-17, 02:59:04,VALID,916.201,VALID,0,VALID,93.0133,VALID,0,VALID,19.3113,VALID,158,VALID,0.492969,
2009-09-17, 03:00:04,VALID,916.183,VALID,0,VALID,93.0667,VALID,0,VALID,19.3143,VALID,158,VALID,0.210156,
2009-09-17, 03:01:04,VALID,916.17,VALID,0,VALID,93.0667,VALID,0,VALID,19.2738,VALID,158,VALID,0.489453,
2009-09-17, 03:02:04,VALID,916.196,VALID,0,VALID,93.2268,VALID,0,VALID,19.2334,VALID,158,VALID,0.277734,
2009-09-17, 03:03:04,VALID,916.189,VALID,0,VALID,93.2344,VALID,0,VALID,19.2348,VALID,158,VALID,0.273828,
2009-09-17, 03:04:04,VALID,916.18,VALID,0,VALID,93.2191,VALID,0,VALID,19.2153,VALID,154,VALID,0.673828,
2009-09-17, 03:05:04,VALID,916.186,VALID,0,VALID,93.3411,VALID,0,VALID,19.1958,VALID,144,VALID,0.335938,
2009-09-17, 03:06:04,VALID,916.16,VALID,0,VALID,93.4859,VALID,0,VALID,19.1958,VALID,143,VALID,0.8125,
2009-09-17, 03:07:04,VALID,916.14,VALID,0,VALID,93.5241,VALID,0,VALID,19.1734,VALID,117,VALID,0.301953,
2009-09-17, 03:08:04,VALID,916.139,VALID,0,VALID,93.4859,VALID,0,VALID,19.1749,VALID,117,VALID,0.587109,
2009-09-17, 03:09:04,VALID,916.12,VALID,0,VALID,93.2572,VALID,0.107441,VALID,19.1539,VALID,102,VALID,0.933594,
2009-09-17, 03:10:04,VALID,916.115,VALID,0,VALID,92.9904,VALID,0,VALID,19.1539,VALID,102,VALID,0.871484,
2009-09-17, 03:11:04,VALID,916.098,VALID,0,VALID,92.6245,VALID,0,VALID,19.1944,VALID,102,VALID,0.642969,
2009-09-17, 03:12:04,VALID,916.107,VALID,0,VALID,92.4568,VALID,0.107441,VALID,19.1929,VALID,102,VALID,0.483594,
2009-09-17, 03:13:04,VALID,916.1,VALID,0,VALID,92.2662,VALID,0.107441,VALID,19.2139,VALID,102,VALID,0.590234,
2009-09-17, 03:14:04,VALID,916.105,VALID,0,VALID,92.0375,VALID,0.107441,VALID,19.2334,VALID,102,VALID,0.701953,
2009-09-17, 03:15:04,VALID,916.127,VALID,0,VALID,92.0832,VALID,0,VALID,19.2334,VALID,139,VALID,0.902344,
2009-09-17, 03:16:04,VALID,916.109,VALID,0,VALID,92.0985,VALID,0,VALID,19.2139,VALID,138,VALID,1.04336,
2009-09-17, 03:17:04,VALID,916.131,VALID,0,VALID,92.0299,VALID,0,VALID,19.1944,VALID,138,VALID,0.778516,
2009-09-17, 03:18:04,VALID,916.143,VALID,0,VALID,92.3424,VALID,0.107441,VALID,19.1539,VALID,138,VALID,0.7625,
2009-09-17, 03:19:04,VALID,916.128,VALID,0,VALID,92.3424,VALID,0,VALID,19.1749,VALID,138,VALID,0.415625,
2009-09-17, 03:20:04,VALID,916.128,VALID,0,VALID,92.3501,VALID,0,VALID,19.1554,VALID,122,VALID,1.16602,
2009-09-17, 03:21:04,VALID,916.134,VALID,0,VALID,92.3882,VALID,0,VALID,19.1554,VALID,122,VALID,0.826953,
2009-09-17, 03:22:04,VALID,916.152,VALID,0,VALID,92.5559,VALID,0,VALID,19.1539,VALID,122,VALID,0.438281,
2009-09-17, 03:23:04,VALID,916.144,VALID,0,VALID,92.0985,VALID,0,VALID,19.1944,VALID,122,VALID,1.23789,
2009-09-17, 03:24:04,VALID,916.147,VALID,0,VALID,92.1595,VALID,0,VALID,19.1944,VALID,122,VALID,1.07461,
2009-09-17, 03:25:04,VALID,916.166,VALID,0,VALID,92.2205,VALID,0,VALID,19.2139,VALID,120,VALID,0.811328,
2009-09-17, 03:26:04,VALID,916.151,VALID,0,VALID,92.1137,VALID,0,VALID,19.1944,VALID,120,VALID,0.808984,
2009-09-17, 03:27:04,VALID,916.148,VALID,0,VALID,92.1976,VALID,0,VALID,19.1944,VALID,99,VALID,0.713281,
2009-09-17, 03:28:04,VALID,916.158,VALID,0,VALID,92.129,VALID,0,VALID,19.1944,VALID,99,VALID,0.534375,
2009-09-17, 03:29:04,VALID,916.137,VALID,0,VALID,92.1747,VALID,0.107441,VALID,19.1929,VALID,99,VALID,0.391016,
2009-09-17, 03:30:04,VALID,916.109,VALID,0,VALID,92.3272,VALID,0.107441,VALID,19.1944,VALID,99,VALID,0.633984,
2009-09-17, 03:31:04,VALID,916.119,VALID,0,VALID,92.3653,VALID,0.107441,VALID,19.1944,VALID,99,VALID,0.992578,
2009-09-17, 03:32:04,VALID,916.105,VALID,0,VALID,92.472,VALID,0,VALID,19.1944,VALID,111,VALID,1.0043,
2009-09-17, 03:33:04,VALID,916.095,VALID,0,VALID,92.7846,VALID,0,VALID,19.1944,VALID,134,VALID,1.08477,
2009-09-17, 03:34:04,VALID,916.082,VALID,0,VALID,92.7922,VALID,0,VALID,19.2139,VALID,122,VALID,1.18555,
2009-09-17, 03:35:04,VALID,916.11,VALID,0,VALID,92.7541,VALID,0,VALID,19.2528,VALID,122,VALID,0.859766,
2009-09-17, 03:36:04,VALID,916.12,VALID,0,VALID,92.838,VALID,0,VALID,19.2528,VALID,122,VALID,1.46367,
2009-09-17, 03:37:04,VALID,916.11,VALID,0,VALID,92.8913,VALID,0.107441,VALID,19.2528,VALID,122,VALID,1.58125,
2009-09-17, 03:38:04,VALID,916.099,VALID,0,VALID,92.9904,VALID,0,VALID,19.2334,VALID,122,VALID,1.48945,
2009-09-17, 03:39:04,VALID,916.109,VALID,0,VALID,93.059,VALID,0,VALID,19.2334,VALID,122,VALID,1.43789,
2009-09-17, 03:40:04,VALID,916.086,VALID,0,VALID,92.9752,VALID,0,VALID,19.2528,VALID,138,VALID,1.47227,
2009-09-17, 03:41:04,VALID,916.111,VALID,0,VALID,92.9904,VALID,0,VALID,19.2528,VALID,122,VALID,1.4543,
2009-09-17, 03:42:04,VALID,916.074,VALID,0,VALID,93.2039,VALID,0.107441,VALID,19.2124,VALID,122,VALID,1.17578,